sat.trackr.live / text

‹ back to catalog

STARLINK-5134

NORAD 53976 · 2022-125N

PAYLOAD ACTIVE UNKNOWN

§ Identity

Operator
Country
US
Launch date
2022-10-05
Launch site
AFWTR
Launch vehicle
Mass (kg)
RCS (m²)

Purposes: comms

External: N2YO · Heavens-Above · Gunter

§ Orbital elements

Epoch: 2026-05-25T05:05:44.577600Z

Period
95.44 min
Inclination
53.2157°
Eccentricity
0.0001168
Mean motion
15.08844070 rev/d
Perigee alt
538.9 km
Apogee alt
540.5 km
Semi-major
6,917.9 km
B*
2.8616e-5
RAAN
220.7129°
Arg perigee
85.6561°
Mean anomaly
274.4565°
Rev number
20,115

§ Raw data

STARLINK-51341 53976U 22125N   26145.21232150  .00000168  00000+0  28616-4 0  99972 53976  53.2157 220.7129 0001168  85.6561 274.4565 15.08844070201154

JSON: /api/v1/satellites/53976 · /tle

For live sub-satellite position, see the globe view (requires WebGL).

§ Visibility from observer

Set your observer location to see the next 7 days of passes ≥ 10°. The values pass through the URL so the page stays shareable.

No JS? Fill the form by hand. The geolocation button needs JavaScript.